Salem, OR

1:41 PM PDT on September 29, 2016 (GMT -0700)
McNary

Weather History for KSLE - February, 2014

Change the Weather History Date:

Thursday, February 20, 2014

  Actual Average Record
Temperature  
Mean Temperature 46 °F 44 °F  
Max Temperature 49 °F 52 °F 64 °F (1995)
Min Temperature 43 °F 35 °F 18 °F (2006)
Degree Days  
Heating Degree Days 19 22  
Month to date heating degree days 480 447  
Since 1 July heating degree days 3138 3074  
Cooling Degree Days 0 0  
Month to date cooling degree days 0 0  
Year to date cooling degree days 0 0  
Moisture  
Dew Point 43 °F    
Average Humidity 88    
Maximum Humidity 93    
Minimum Humidity 83    
Precipitation  
Precipitation 0.20 in 0.16 in 2.05 in (1956)
Month to date precipitation 6.59 3.32  
Year to date precipitation 8.85 9.28  
Sea Level Pressure  
Sea Level Pressure 30.25 in    
Wind  
Wind Speed 10 mph (South)    
Max Wind Speed 22 mph    
Max Gust Speed 28 mph    
Visibility 8 miles    
Events Rain    
T = Trace of Precipitation, MM = Missing Value Source: NWS Daily Summary

Daily Weather History Graph

Daily Weather History Graph

Search for Another Location

Airport or City:

Trip Planner

Search our weather history database for the weather conditions in past years. The results will help you decide how hot, cold, wet, or windy it might be!

Date:

Astronomy

Feb. 20, 2014 Rise Set
Actual Time 7:04 AM PST 5:47 PM PST
Civil Twilight 6:34 AM PST 6:17 PM PST
Nautical Twilight 6:00 AM PST 6:51 PM PST
Astronomical Twilight 5:26 AM PST 7:25 PM PST
Moon No Moon Rise 9:35 AM PST (2/20)
Length of Visible Light 11h 42m
Length of Day
10h 42m
Waning Gibbous, 70% of the Moon is Illuminated
Feb 20
Waning Gibbous
Feb 22
Last Quarter
Mar 1
New
Mar 8
First Quarter
Mar 16
Full

Hourly Weather History & Observations

Time (PST) Temp. Windchill Dew Point Humidity Pressure Visibility Wind Dir Wind Speed Gust Speed Precip Events Conditions
12:56 AM 44.1 °F 37.4 °F 39.0 °F 82% 30.24 in 10.0 mi South 13.8 mph - N/A   Overcast
1:56 AM 44.1 °F 36.5 °F 39.9 °F 85% 30.23 in 8.0 mi South 17.3 mph 23.0 mph 0.00 in Rain Light Rain
2:56 AM 44.1 °F 36.8 °F 41.0 °F 89% 30.23 in 4.0 mi South 16.1 mph 25.3 mph 0.01 in Rain Light Rain
3:34 AM 44.1 °F 35.9 °F 39.9 °F 85% 30.22 in 4.0 mi South 19.6 mph 25.3 mph 0.00 in Rain Light Rain
3:56 AM 44.1 °F 35.7 °F 39.9 °F 85% 30.22 in 4.0 mi South 20.7 mph - 0.01 in Rain Light Rain
4:12 AM 44.1 °F 36.5 °F 41.0 °F 89% 30.22 in 4.0 mi South 17.3 mph - 0.00 in Rain Light Rain
4:27 AM 44.1 °F 36.2 °F 41.0 °F 89% 30.22 in 5.0 mi South 18.4 mph - 0.00 in Rain Light Rain
4:48 AM 44.1 °F 37.1 °F 39.9 °F 85% 30.22 in 9.0 mi South 15.0 mph - 0.00 in   Overcast
4:56 AM 44.1 °F 37.1 °F 39.9 °F 85% 30.22 in 8.0 mi South 15.0 mph 27.6 mph 0.00 in   Overcast
5:11 AM 44.1 °F 35.9 °F 39.9 °F 85% 30.22 in 9.0 mi South 19.6 mph - N/A   Overcast
5:56 AM 44.1 °F 36.2 °F 39.9 °F 85% 30.22 in 6.0 mi South 18.4 mph 27.6 mph 0.01 in Rain Rain
6:09 AM 44.1 °F 35.7 °F 41.0 °F 89% 30.21 in 7.0 mi South 20.7 mph - 0.03 in Rain Rain
6:56 AM 44.1 °F 36.8 °F 41.0 °F 89% 30.22 in 7.0 mi South 16.1 mph 25.3 mph 0.06 in Rain Light Rain
7:48 AM 44.1 °F 39.0 °F 41.0 °F 89% 30.25 in 6.0 mi NW 9.2 mph 19.6 mph 0.01 in Rain Light Rain
7:56 AM 44.1 °F 36.8 °F 41.0 °F 89% 30.25 in 3.0 mi WSW 16.1 mph 24.2 mph 0.04 in Rain Light Rain
8:56 AM 45.0 °F 40.6 °F 42.1 °F 90% 30.26 in 8.0 mi South 8.1 mph - 0.04 in Rain Light Rain
9:03 AM 45.0 °F 39.7 °F 42.1 °F 90% 30.26 in 10.0 mi South 10.4 mph - 0.00 in Rain Light Rain
9:56 AM 45.0 °F 38.9 °F 42.1 °F 90% 30.27 in 9.0 mi South 12.7 mph - 0.02 in Rain Light Rain
10:56 AM 46.9 °F - 44.1 °F 90% 30.28 in 10.0 mi South 11.5 mph - 0.00 in Rain Light Rain
11:56 AM 48.0 °F - 44.1 °F 86% 30.29 in 10.0 mi South 12.7 mph - 0.01 in Rain Light Rain
12:24 PM 48.0 °F - 45.0 °F 89% 30.27 in 10.0 mi South 12.7 mph - 0.00 in   Overcast
12:56 PM 48.0 °F - 44.1 °F 86% 30.28 in 10.0 mi South 11.5 mph - 0.00 in Rain Light Rain
1:56 PM 48.9 °F - 45.0 °F 86% 30.27 in 10.0 mi South 9.2 mph - 0.00 in Rain Light Rain
2:06 PM 48.9 °F - 44.1 °F 83% 30.27 in 10.0 mi South 11.5 mph - 0.00 in Rain Light Rain
2:56 PM 48.0 °F - 45.0 °F 89% 30.27 in 10.0 mi South 9.2 mph - 0.00 in   Overcast
3:56 PM 48.0 °F - 45.0 °F 89% 30.27 in 10.0 mi South 9.2 mph - 0.00 in Rain Light Rain
4:51 PM 48.2 °F - 44.6 °F 87% 30.25 in 10.0 mi South 8.1 mph - 0.00 in   Overcast
4:56 PM 48.0 °F - 45.0 °F 89% 30.26 in 10.0 mi South 6.9 mph - 0.00 in   Overcast
5:12 PM 48.0 °F - 45.0 °F 89% 30.25 in 10.0 mi South 6.9 mph - N/A   Overcast
5:23 PM 48.0 °F - 45.0 °F 89% 30.25 in 10.0 mi SSE 5.8 mph - N/A   Overcast
5:43 PM 48.0 °F - 45.0 °F 89% 30.25 in 10.0 mi SSE 5.8 mph - 0.00 in   Overcast
5:56 PM 48.0 °F - 45.0 °F 89% 30.26 in 10.0 mi SSE 5.8 mph - 0.00 in   Overcast
6:56 PM 46.9 °F - 45.0 °F 93% 30.27 in 10.0 mi SSE 5.8 mph - N/A   Overcast
7:36 PM 46.9 °F - 45.0 °F 93% 30.26 in 10.0 mi Calm Calm - N/A   Overcast
7:47 PM 46.9 °F - 45.0 °F 93% 30.27 in 7.0 mi SE 3.5 mph - N/A   Overcast
7:56 PM 46.9 °F - 45.0 °F 93% 30.27 in 8.0 mi SE 4.6 mph - N/A   Overcast
8:56 PM 46.9 °F - 45.0 °F 93% 30.27 in 10.0 mi SSE 3.5 mph - N/A   Overcast
9:33 PM 46.0 °F 43.1 °F 44.1 °F 93% 30.27 in 10.0 mi SSE 5.8 mph - 0.00 in   Overcast
9:49 PM 46.0 °F 43.9 °F 44.1 °F 93% 30.27 in 10.0 mi SSE 4.6 mph - 0.00 in   Overcast
9:56 PM 46.0 °F 43.9 °F 44.1 °F 93% 30.28 in 10.0 mi SSE 4.6 mph - 0.00 in   Overcast
10:56 PM 46.0 °F - 44.1 °F 93% 30.29 in 10.0 mi Calm Calm - N/A   Overcast
11:32 PM 46.9 °F - 45.0 °F 93% 30.28 in 10.0 mi Calm Calm - N/A   Overcast
11:56 PM 46.9 °F - 44.1 °F 90% 30.29 in 10.0 mi Calm Calm - N/A   Overcast